Date String (YYYY-MM-DD hh:mm:ss) UTC,Instrument flags,Ambient pressure (hPa),Sample flow (lpm),Bypass flow (lpm),Sample temperature (°C),Ambient temperature (°C),ASC tube jacket temperature (°C),LED temperature (°C),Box temperature (°C),Sample RH (%),Span deviation,Mass concentration (μg/m³),Mass concentration (μg/m³),Mass concentration (μg/m³)
DateTimeUTC,F1_M11,P_M11,Q1_M11,Q2_M11,T1_M11,T2_M11,T3_M11,T4_M11,T5_M11,U1_M11,ZSPAN_M11,X0_M11,X2_M11,X1_M11
2021-08-21 17:00:00,,0829.1,5.00,0.00,29.8,28.6,00.0,38.9,31.7,23.6,0001.7,0016.17,0011.33,0010.84
2021-08-21 17:01:00,,0829.0,5.00,0.00,29.9,28.7,00.0,38.9,31.7,23.7,0001.7,0016.04,0011.32,0010.86
2021-08-21 17:02:00,,0829.2,5.01,0.00,29.9,28.8,00.0,39.0,31.8,23.6,0001.8,0015.83,0011.30,0010.86
2021-08-21 17:03:00,,0829.1,5.00,0.00,30.0,29.0,00.0,39.0,31.8,24.0,0001.8,0015.66,0011.30,0010.87
2021-08-21 17:04:00,,0828.9,4.99,0.00,30.0,29.1,00.0,39.0,31.9,23.4,0001.7,0015.34,0011.31,0010.88
2021-08-21 17:05:00,,0828.7,5.01,0.00,30.0,29.1,00.0,39.0,31.9,23.8,0001.8,0015.92,0011.34,0010.93
2021-08-21 17:06:00,,0828.8,5.00,0.00,30.1,29.0,00.0,39.0,31.9,23.8,0001.7,0016.41,0011.42,0010.98
2021-08-21 17:07:00,,0828.8,5.00,0.00,30.0,27.5,00.0,39.0,31.5,24.2,0001.9,0017.12,0011.47,0011.01
2021-08-21 17:08:00,,0828.9,5.00,0.00,29.8,26.1,00.0,39.0,31.1,24.3,0001.8,0017.10,0011.49,0011.04
2021-08-21 17:09:00,,0829.0,5.00,0.00,29.7,26.4,00.0,39.0,31.1,24.3,0001.8,0017.24,0011.55,0011.08
2021-08-21 17:10:00,,0828.9,4.99,0.00,29.7,26.8,00.0,38.9,31.2,24.4,0001.7,0017.39,0011.59,0011.10
2021-08-21 17:11:00,,0828.7,5.00,0.00,29.7,27.2,00.0,38.9,31.3,24.5,0001.8,0017.42,0011.62,0011.12
2021-08-21 17:12:00,,0828.5,5.01,0.00,29.7,27.5,00.0,38.9,31.3,24.2,0001.9,0017.53,0011.68,0011.11
2021-08-21 17:13:00,,0828.5,4.99,0.00,29.7,27.8,00.0,38.8,31.4,24.2,0002.0,0017.77,0011.74,0011.13
2021-08-21 17:14:00,,0828.5,5.00,0.00,29.7,28.1,00.0,38.8,31.5,24.6,0002.0,0018.20,0011.77,0011.16
2021-08-21 17:15:00,,0828.5,5.00,0.00,29.7,28.3,00.0,38.8,31.5,24.7,0001.9,0018.23,0011.74,0011.15
2021-08-21 17:16:00,,0828.4,5.01,0.00,29.8,28.5,00.0,38.8,31.6,24.1,0001.8,0018.43,0011.75,0011.13
2021-08-21 17:17:00,,0828.4,5.00,0.00,29.8,28.7,00.0,38.9,31.7,24.2,0001.7,0017.93,0011.69,0011.10
2021-08-21 17:18:00,,0828.4,4.99,0.00,29.9,28.8,00.0,38.9,31.7,24.4,0001.5,0017.30,0011.68,0011.10
2021-08-21 17:19:00,,0828.5,5.01,0.00,29.9,28.9,00.0,38.9,31.8,24.5,0001.6,0017.30,0011.68,0011.09
2021-08-21 17:20:00,,0828.4,5.01,0.00,29.9,29.0,00.0,38.9,31.9,24.2,0001.6,0017.19,0011.64,0011.05
2021-08-21 17:21:00,,0828.5,4.99,0.00,30.0,29.1,00.0,38.9,31.9,24.3,0001.8,0017.15,0011.59,0011.03
2021-08-21 17:22:00,,0828.4,5.00,0.00,30.0,29.0,00.0,39.0,31.8,23.8,0001.8,0017.28,0011.60,0011.04
2021-08-21 17:23:00,,0828.3,5.00,0.00,30.0,27.4,00.0,38.9,31.4,24.0,0001.7,0017.11,0011.53,0011.04
2021-08-21 17:24:00,,0828.3,5.00,0.00,29.8,26.1,00.0,38.9,31.0,24.4,0001.5,0017.04,0011.52,0011.04
2021-08-21 17:25:00,,0828.3,5.01,0.00,29.7,26.3,00.0,38.9,31.0,24.8,0001.5,0016.68,0011.51,0011.04
2021-08-21 17:26:00,,0828.3,4.99,0.00,29.6,26.7,00.0,38.9,31.1,24.7,0001.6,0016.69,0011.56,0011.08
2021-08-21 17:27:00,,0828.3,5.00,0.00,29.6,27.2,00.0,38.8,31.2,25.1,0001.7,0016.18,0011.59,0011.14
2021-08-21 17:28:00,,0828.3,5.00,0.00,29.6,27.5,00.0,38.8,31.3,24.6,0001.9,0016.78,0011.69,0011.21
2021-08-21 17:29:00,,0828.3,4.99,0.00,29.6,27.8,00.0,38.8,31.4,24.3,0002.0,0017.00,0011.79,0011.29
2021-08-21 17:30:00,,0828.3,5.01,0.00,29.7,28.1,00.0,38.8,31.4,24.5,0002.1,0017.63,0011.85,0011.35
2021-08-21 17:31:00,,0828.3,4.99,0.00,29.7,28.3,00.0,38.8,31.5,24.7,0002.0,0017.82,0011.93,0011.43
2021-08-21 17:32:00,,0828.3,5.02,0.00,29.7,28.4,00.0,38.8,31.5,24.9,0001.9,0017.73,0011.97,0011.48
2021-08-21 17:33:00,,0828.3,4.99,0.00,29.8,28.6,00.0,38.8,31.6,24.8,0002.0,0017.71,0011.99,0011.49
2021-08-21 17:34:00,,0828.2,5.00,0.00,29.8,28.7,00.0,38.8,31.7,24.5,0002.1,0017.86,0012.03,0011.50
2021-08-21 17:35:00,,0828.2,5.00,0.00,29.9,28.9,00.0,38.8,31.8,24.7,0002.2,0017.75,0012.09,0011.54
2021-08-21 17:36:00,,0828.2,5.01,0.00,29.9,29.0,00.0,38.9,31.8,24.6,0002.2,0017.73,0012.13,0011.57
2021-08-21 17:37:00,,0828.2,5.00,0.00,29.9,29.1,00.0,38.9,31.8,24.4,0002.2,0017.68,0012.14,0011.60
2021-08-21 17:38:00,,0828.2,4.99,0.00,30.0,29.0,00.0,38.9,31.8,24.6,0002.2,0017.60,0012.17,0011.61
2021-08-21 17:39:00,,0828.2,5.00,0.00,29.9,27.4,00.0,38.9,31.4,24.3,0002.1,0017.15,0012.19,0011.61
2021-08-21 17:40:00,,0828.2,5.01,0.00,29.7,26.1,00.0,38.9,31.0,25.1,0002.0,0016.92,0012.15,0011.61
2021-08-21 17:41:00,,0828.1,4.99,0.00,29.7,26.3,00.0,38.8,31.0,24.4,0002.0,0016.53,0012.18,0011.65
2021-08-21 17:42:00,,0828.1,5.00,0.00,29.6,26.8,00.0,38.8,31.1,24.3,0002.1,0016.84,0012.25,0011.69
2021-08-21 17:43:00,,0828.1,5.00,0.00,29.6,27.1,00.0,38.8,31.2,24.3,0002.1,0017.38,0012.37,0011.78
2021-08-21 17:44:00,,0828.1,5.00,0.00,29.6,27.5,00.0,38.8,31.3,24.2,0002.0,0017.98,0012.47,0011.88
2021-08-21 17:45:00,,0828.1,5.00,0.00,29.6,27.8,00.0,38.8,31.4,24.5,0002.1,0018.06,0012.54,0011.97
2021-08-21 17:46:00,,0828.1,4.99,0.00,29.6,28.1,00.0,38.8,31.4,24.2,0002.1,0018.03,0012.58,0012.04
2021-08-21 17:47:00,,0828.0,4.99,0.00,29.7,28.3,00.0,38.8,31.5,24.0,0002.0,0018.04,0012.65,0012.12
2021-08-21 17:48:00,,0828.0,5.00,0.00,29.7,28.5,00.0,38.8,31.6,24.7,0002.0,0018.24,0012.77,0012.23
2021-08-21 17:49:00,,0828.0,4.99,0.00,29.8,28.6,00.0,38.8,31.6,25.0,0002.1,0018.59,0012.85,0012.30
2021-08-21 17:50:00,,0828.0,5.01,0.00,29.8,28.7,00.0,38.8,31.7,24.6,0002.0,0018.64,0012.89,0012.36
2021-08-21 17:51:00,,0828.0,5.00,0.00,29.8,28.8,00.0,38.8,31.7,24.5,0002.1,0019.04,0012.98,0012.43
2021-08-21 17:52:00,,0827.9,5.01,0.00,29.9,28.9,00.0,38.8,31.8,24.4,0002.2,0019.94,0013.07,0012.49
2021-08-21 17:53:00,,0827.9,4.99,0.00,29.9,29.0,00.0,38.9,31.8,24.7,0002.0,0019.63,0013.08,0012.52
2021-08-21 17:54:00,,0828.0,5.00,0.00,29.9,28.2,00.0,38.9,31.6,24.5,0001.9,0019.51,0013.06,0012.54
2021-08-21 17:55:00,,0827.9,5.01,0.00,29.8,26.6,00.0,38.8,31.2,24.9,0001.8,0019.09,0013.08,0012.56
2021-08-21 17:56:00,,0827.9,4.99,0.00,29.7,26.3,00.0,38.8,31.0,25.0,0001.7,0019.25,0013.14,0012.60
2021-08-21 17:57:00,,0827.9,5.00,0.00,29.6,26.7,00.0,38.8,31.2,25.2,0001.7,0019.89,0013.15,0012.61
2021-08-21 17:58:00,,0827.9,5.00,0.00,29.6,27.1,00.0,38.8,31.2,24.7,0001.9,0020.49,0013.18,0012.63
2021-08-21 17:59:00,,0827.8,5.01,0.00,29.6,27.4,00.0,38.7,31.2,25.0,0002.0,0020.94,0013.19,0012.64
